User: anonymous   Login
Location: Unspecified
(0.0000°N, 0.0000°E)
Time: 05:25:02
(UTC+00:00)
Language:

NNS O-25 - Orbit

View from above orbital plane
View from above orbital plane
View from above satellite
View from above satellite

Ground track
Ground track

The orbit data is extracted from the following two-line orbital elements,

1 19419U 88074A   17324.73058689  .00000068  00000-0  10219-3 0  9994
2 19419  89.9881  18.7530 0096322   3.1095 117.6673 13.42176963431723
Epoch (UTC): 20 November 2017 17:32:02
Eccentricity: 0.0096322
inclination: 89.9881°
perigee height: 1029 km
apogee height: 1173 km
right ascension of ascending node: 18.7530°
argument of perigee: 3.1095°
revolutions per day: 13.42176963
mean anomaly at epoch: 117.6673°
orbit number at epoch: 43172

The dashed part of the orbit path shows where the satellite is in the earth's shadow,  

DLR